Aérodrome :
LOGIN :

S'inscrire | Disclaimer

   EN    FR    IT 

 










Légende :    VFR   VFR Marginal   IFR   IFR Intensif   IFR Très Intensif
Visi : 
Plafond : 
>= 8 km
>= 3000ft
5 à 8 km
1000 à 3000 ft
1500m à 5 km
500 à 1000 ft
800 à 1500m
200 à 500 ft
< 800m
< 200 ft
Symboles :   Orages  Brouillard  Fortes neiges  Fortes précipitations  Vent > 20 kt
SIGMETs :   Divers  Orages  Givrage  Turbulence  Onde Orograph.  Cendres Volcan.







- Altitude de l'aérodrome : 410 ft
- Code IATA : AVB


LIPA - Aviano AB Pordenone

DERNIER METAR :
  • 211055Z 25004KT 9999 SCT060 12/05 Q1013 RMK SCT VIS MIN 9999 WIND THR05 24003KT WIND THR23 25004KT A2992 BLU

METARs EXPIRÉS :
  • 210955Z 19003KT 9999 BKN060 10/04 Q1013 RMK BKN VIS MIN 9999 WIND THR05 02003KT WIND THR23 36003KT A2992 BLU
  • 210855Z 35004KT 9999 BKN060 09/05 Q1013 RMK BKN VIS MIN 9999 WIND THR05 35004KT WIND THR23 33004KT A2992 BLU

TAF TAF LIPA
Valide du 21 à 12h jusqu'au 21 à 21h UTC


211100Z 2112/2121 VRB03KT 9999 BKN060
Pas de NOTAMs connus pour ce terrain.



MET'MAP, la Météo Aéronautique d'un coup d'oeil ! - Copyright ORBIFLY Décembre 2007 - Disclaimer

ORBIFLY MET'MAP TEAM :

Programmation & Développement : Alexandra Zaïnal
Conception & Développement : Baudouin d'Aumeries
Co-Programmation & Développement : Marc-Olivier Méhu
Soutien technique & logistique : Manuel Goepfert

Contact : metmap@orbifly.com




SOURCES & CREDITS :

   NOAA